DW5513 Weather Reports


Display with metric or nautical units.
time (UTC)temp
F
wind
direction
speed
MPH
gust
MPH
rain 1hr
in
rain 24hr
in
rain mn
in
humidity
%
barometer
mb
20260903064501 64 56 0.0 0.0 0.00 0.21 0.00 98 1013.6
20260903063001 64 56 0.0 0.0 0.00 0.21 0.00 98 1013.5
20260903061605 64 71 0.0 1.0 0.00 0.21 0.00 98 1013.4
20260903060105 64 65 0.0 1.0 0.00 0.21 0.00 98 1013.4
20260903054559 64 65 0.0 1.0 0.00 0.21 0.00 98 1013.6
20260903053100 64 337 0.0 4.0 0.00 0.21 0.00 98 1013.5
20260903051612 64 97 0.0 2.0 0.00 0.21 0.00 98 1013.7
20260903050059 64 56 0.0 0.0 0.00 0.21 0.00 98 1013.8
20260903044600 64 274 0.0 1.0 0.00 0.21 0.00 97 1014.0
20260903043147 64 274 0.0 1.0 0.01 0.21 0.00 97 1014.2
20260903041553 64 197 0.0 2.0 0.04 0.21 0.00 97 1013.6
20260903040051 64 215 0.0 5.0 0.09 0.21 0.00 97 1013.7
20260903034549 64 169 0.0 2.0 0.11 0.21 0.21 97 1013.9
20260903033049 64 178 0.0 0.0 0.13 0.20 0.20 97 1014.1
20260903031546 64 360 0.0 2.0 0.11 0.17 0.17 97 1014.4
20260903030044 64 50 0.0 0.0 0.07 0.12 0.12 96 1015.2
20260903024546 64 244 0.0 1.0 0.06 0.10 0.10 96 1015.3
20260903023042 64 238 0.0 1.0 0.06 0.07 0.07 96 1015.3
20260903021543 64 225 0.0 1.0 0.05 0.06 0.06 95 1015.1
20260903020042 64 193 0.0 2.0 0.04 0.05 0.05 94 1015.2
20260903014547 65 167 0.0 1.0 0.02 0.03 0.03 93 1015.7
20260903013050 65 285 0.0 0.0 0.00 0.01 0.01 92 1016.5
20260903011540 66 285 0.0 1.0 0.00 0.01 0.01 91 1016.6
20260903010041 65 167 0.0 2.0 0.00 0.01 0.01 91 1016.2
20260903004538 66 89 0.0 0.0 0.00 0.01 0.01 91 1016.3
20260903003039 66 81 0.0 2.0 0.00 0.01 0.01 91 1016.3
20260903001539 66 119 0.0 2.0 0.00 0.01 0.01 91 1016.4
20260903000037 66 324 0.0 0.0 0.00 0.01 0.01 91 1016.2
20260902234536 66 212 0.0 6.0 0.00 0.01 0.01 91 1015.3
20260902233036 66 205 0.0 6.0 0.00 0.01 0.01 91 1015.6
20260902231536 66 195 0.0 4.0 0.00 0.01 0.01 90 1014.8
20260902230036 66 151 0.0 7.0 0.00 0.01 0.01 90 1015.2
20260902224542 67 122 0.0 5.0 0.00 0.01 0.01 90 1015.2
20260902223028 67 124 0.0 0.0 0.00 0.00 0.01 90 1016.1
20260902221525 67 148 0.0 2.0 0.00 0.01 0.01 89 1016.7
20260902220022 67 158 0.0 4.0 0.00 0.01 0.01 89 1016.9
20260902214522 68 178 0.0 4.0 0.00 0.01 0.01 88 1017.1
20260902213021 68 37 0.0 2.0 0.00 0.01 0.01 88 1017.3
20260902211521 69 96 0.0 3.0 0.00 0.01 0.01 88 1017.3
20260902210022 69 62 0.0 6.0 0.00 0.01 0.01 88 1017.1
20260902204521 69 150 0.0 2.0 0.00 0.01 0.01 88 1017.1
20260902203020 69 138 0.0 2.0 0.00 0.01 0.01 88 1017.2
20260902201522 69 141 0.0 4.0 0.00 0.01 0.01 87 1017.2
20260902200026 69 195 0.0 4.0 0.00 0.01 0.01 87 1017.3
20260902194521 69 70 1.0 5.0 0.00 0.01 0.01 87 1017.4
20260902193016 69 244 1.0 5.0 0.00 0.01 0.01 88 1017.7
20260902191516 69 125 0.0 5.0 0.00 0.01 0.01 87 1017.4
20260902190027 69 233 0.0 3.0 0.00 0.01 0.01 88 1017.5
20260902184516 69 166 1.0 3.0 0.00 0.01 0.01 89 1017.5
20260902183012 68 141 0.0 3.0 0.00 0.01 0.01 89 1017.7
20260902181508 67 221 0.0 3.0 0.00 0.01 0.01 92 1018.1
20260902180008 65 31 2.0 5.0 0.01 0.01 0.01 93 1017.9
20260902174505 64 37 0.0 5.0 0.01 0.01 0.01 96 1018.0
20260902173006 63 71 1.0 7.0 0.01 0.01 0.01 95 1018.1
20260902171504 63 110 0.0 6.0 0.01 0.01 0.01 95 1018.7
20260902170006 63 347 0.0 2.0 0.00 0.00 0.00 95 1018.5
20260902164502 63 136 0.0 6.0 0.00 0.00 0.00 95 1017.9
20260902163002 64 83 1.0 3.0 0.00 0.00 0.00 94 1018.6
20260902161505 64 154 0.0 3.0 0.00 0.00 0.00 94 1018.4
20260902160107 64 233 0.0 2.0 0.00 0.00 0.00 94 1018.7
20260902154605 64 61 0.0 3.0 0.00 0.00 0.00 94 1019.0
20260902153100 64 85 3.0 6.0 0.00 0.00 0.00 94 1018.5
20260902151559 64 153 0.0 6.0 0.00 0.00 0.00 94 1018.5
20260902150059 64 139 0.0 6.0 0.00 0.00 0.00 94 1018.9
20260902144558 64 136 1.0 3.0 0.00 0.04 0.00 94 1019.1
20260902143058 64 134 0.0 1.0 0.00 0.04 0.00 94 1019.1
20260902141601 64 130 0.0 3.0 0.00 0.04 0.00 94 1018.9
20260902134556 64 169 1.0 4.0 0.00 0.05 0.00 94 1018.8
20260902133056 64 243 0.0 3.0 0.00 0.05 0.00 94 1018.8
20260902131604 64 107 0.0 3.0 0.00 0.05 0.00 95 1018.7
20260902130053 64 81 0.0 2.0 0.00 0.05 0.00 94 1019.1
20260902124559 63 160 0.0 1.0 0.00 0.07 0.00 95 1019.1
20260902123052 63 53 0.0 2.0 0.00 0.07 0.00 95 1018.7
20260902121550 63 79 0.0 1.0 0.00 0.07 0.00 95 1018.9
20260902120148 63 113 0.0 1.0 0.00 0.07 0.00 95 1018.6
20260902114547 63 49 0.0 2.0 0.00 0.07 0.00 95 1018.6
20260902113057 0 0.0 0.0 0.00 0.07 0.00 1018.4
20260902111550 0 0.0 0.0 0.00 0.07 0.00 1018.3
20260902110038 0 0.0 0.0 0.00 0.07 0.00 1018.3
20260902104540 0 0.0 0.0 0.00 0.07 0.00 1018.8
20260902103026 0 0.0 0.0 0.00 0.07 0.00 1018.7
20260902101522 0 0.0 0.0 0.00 0.07 0.00 1018.7
20260902100029 0 141 0.0 1.0 0.00 0.07 0.00 94 1018.7
20260902094519 64 141 0.0 1.0 0.00 0.21 0.00 94 1018.4